Location: Central Falls
(41.8900°N, 71.3929°W)
Time: 02:46:44
(UTC+00:00)

Vanguard 2 Rocket - Pass Details

Date: 09 December 2023
Orbit: 555 x 3309 km, 32.9° (Epoch: 01 March)

Event Time Altitude Azimuth Distance (km) Brightness Sun altitude
Rises 15:30:15 0° 194° (SSW) 4,942 11.6 23.4°
Reaches altitude 10° 15:34:05 10° 180° (S) 4,370 12.0 23.6°
Maximum altitude 15:43:18 23° 134° (SE) 4,209 11.5 24.1°
Drops below altitude 10° 15:55:34 10° 90° (E) 5,996 11.3 24.5°
Sets 16:02:07 0° 79° (E) 7,233 11.5 24.7°
